Crockett, TX

4:17 PM CDT on August 23, 2016 (GMT -0500)
Crockett

Weather History for KDKR - October, 2012

Change the Weather History Date:

Monday, October 8, 2012

  Actual Average (KLFK) Record (KLFK)
Temperature  
Mean Temperature 57 °F 70 °F  
Max Temperature 66 °F 82 °F 94 °F (1928)
Min Temperature 48 °F 58 °F 27 °F (1952)
Degree Days  
Heating Degree Days 8 1  
Month to date heating degree days 8  
Since 1 July heating degree days 12  
Cooling Degree Days 0 6  
Month to date cooling degree days 56  
Year to date cooling degree days 2453  
Growing Degree Days 7 (Base 50)    
Moisture  
Dew Point 48 °F    
Average Humidity 77    
Maximum Humidity 100    
Minimum Humidity 49    
Precipitation  
Precipitation 0.02 in 0.14 in 1.18 in (1994)
Month to date precipitation 1.07  
Year to date precipitation 35.74  
Snow  
Snow 0.00 in - - ()
Month to date snowfall  
Since 1 July snowfall  
Since 1 September snowfall  
Snow Depth -    
Sea Level Pressure  
Sea Level Pressure 30.21 in    
Wind  
Wind Speed 0 mph (North)    
Max Wind Speed 0 mph    
Max Gust Speed -    
Visibility 10 miles    
Events Rain    
T = Trace of Precipitation, MM = Missing Value Source: NWS Daily Summary

Daily Weather History Graph

Daily Weather History Graph

Search for Another Location

Airport or City:

Trip Planner

Search our weather history database for the weather conditions in past years. The results will help you decide how hot, cold, wet, or windy it might be!

Date:

Astronomy

Oct. 08, 2012 Rise Set
Actual Time 7:20 AM CDT 6:57 PM CDT
Civil Twilight 6:55 AM CDT 7:21 PM CDT
Nautical Twilight 6:27 AM CDT 7:49 PM CDT
Astronomical Twilight 5:59 AM CDT 8:17 PM CDT
Moon 12:25 AM CDT (10/8) 2:24 PM CDT (10/8)
Length of Visible Light 12h 25m
Length of Day
11h 37m
Last Quarter, 46% of the Moon is Illuminated
Oct 8
Last Quarter
Oct 15
New
Oct 21
First Quarter
Oct 29
Full
Nov 6
Last Quarter

Hourly Weather History & Observations

Time (CDT) Temp. Dew Point Humidity Pressure Visibility Wind Dir Wind Speed Gust Speed Precip Events Conditions
12:15 AM 51.8 °F 44.6 °F 76% 30.24 in 10.0 mi Calm Calm - N/A   Overcast
12:55 AM 50.0 °F 46.4 °F 87% 30.24 in 5.0 mi Calm Calm - N/A   Mostly Cloudy
1:15 AM 50.0 °F 46.4 °F 87% 30.24 in 10.0 mi Calm Calm - N/A   Overcast
1:35 AM 50.0 °F 46.4 °F 87% 30.24 in 10.0 mi Calm Calm - N/A   Overcast
1:55 AM 50.0 °F 46.4 °F 87% 30.24 in 10.0 mi Calm Calm - N/A   Overcast
2:15 AM 50.0 °F 46.4 °F 87% 30.23 in 10.0 mi Calm Calm - N/A   Overcast
2:35 AM 50.0 °F 46.4 °F 87% 30.23 in 10.0 mi Calm Calm - N/A   Overcast
2:55 AM 48.2 °F 46.4 °F 93% 30.24 in 10.0 mi Calm Calm - N/A   Overcast
3:15 AM 50.0 °F 46.4 °F 87% 30.24 in 10.0 mi Calm Calm - N/A   Overcast
3:35 AM 48.2 °F 46.4 °F 93% 30.24 in 3.0 mi Calm Calm - N/A Rain Light Rain
3:55 AM 48.2 °F 46.4 °F 93% 30.23 in 4.0 mi Calm Calm - 0.02 in   Light Drizzle
4:15 AM 48.2 °F 46.4 °F 93% 30.24 in 10.0 mi Calm Calm - N/A   Mostly Cloudy
4:35 AM 48.2 °F 48.2 °F 100% 30.24 in 10.0 mi Calm Calm - N/A   Mostly Cloudy
4:55 AM 48.2 °F 48.2 °F 100% 30.24 in 10.0 mi Calm Calm - N/A   Overcast
5:15 AM 48.2 °F 46.4 °F 93% 30.24 in 10.0 mi Calm Calm - N/A   Overcast
5:35 AM 48.2 °F 46.4 °F 93% 30.24 in 10.0 mi Calm Calm - N/A   Overcast
5:55 AM 48.2 °F 46.4 °F 93% 30.25 in 10.0 mi Calm Calm - N/A   Overcast
6:15 AM 48.2 °F 46.4 °F 93% 30.25 in 10.0 mi Calm Calm - N/A   Overcast
6:55 AM 48.2 °F 46.4 °F 93% 30.25 in 10.0 mi Calm Calm - N/A   Mostly Cloudy
7:15 AM 50.0 °F 48.2 °F 94% 30.26 in 10.0 mi Calm Calm - N/A   Mostly Cloudy
7:35 AM 50.0 °F 48.2 °F 94% 30.26 in 10.0 mi Calm Calm - N/A   Overcast
7:55 AM 50.0 °F 48.2 °F 94% 30.27 in 10.0 mi Calm Calm - N/A   Mostly Cloudy
8:15 AM 50.0 °F 48.2 °F 94% 30.27 in 10.0 mi Calm Calm - N/A   Mostly Cloudy
8:35 AM 51.8 °F 48.2 °F 88% 30.28 in 10.0 mi Calm Calm - N/A   Overcast
8:55 AM 51.8 °F 48.2 °F 88% 30.28 in 10.0 mi Calm Calm - N/A   Overcast
9:15 AM 51.8 °F 48.2 °F 88% 30.29 in 10.0 mi Calm Calm - N/A   Mostly Cloudy
9:35 AM 53.6 °F 48.2 °F 82% 30.29 in 10.0 mi Calm Calm - N/A   Scattered Clouds
9:55 AM 55.4 °F 48.2 °F 77% 30.29 in 10.0 mi Calm Calm - N/A   Mostly Cloudy
10:15 AM 55.4 °F 48.2 °F 77% 30.28 in 10.0 mi Calm Calm - N/A   Mostly Cloudy
10:35 AM 55.4 °F 46.4 °F 72% 30.28 in 10.0 mi Calm Calm - N/A   Partly Cloudy
10:55 AM 55.4 °F 46.4 °F 72% 30.28 in 10.0 mi Calm Calm - N/A   Mostly Cloudy
11:15 AM 57.2 °F 48.2 °F 72% 30.28 in 10.0 mi Calm Calm - N/A   Mostly Cloudy
11:35 AM 57.2 °F 46.4 °F 67% 30.27 in 10.0 mi Calm Calm - N/A   Mostly Cloudy
11:55 AM 57.2 °F 46.4 °F 67% 30.27 in 10.0 mi Calm Calm - N/A   Partly Cloudy
12:15 PM 59.0 °F 46.4 °F 63% 30.26 in 10.0 mi Calm Calm - N/A   Scattered Clouds
12:55 PM 60.8 °F 46.4 °F 59% 30.24 in 10.0 mi Calm Calm - N/A   Scattered Clouds
1:15 PM 60.8 °F 46.4 °F 59% 30.24 in 10.0 mi Calm Calm - N/A   Scattered Clouds
1:35 PM 60.8 °F 46.4 °F 59% 30.23 in 10.0 mi Calm Calm - N/A   Partly Cloudy
1:55 PM 62.6 °F 48.2 °F 59% 30.22 in 10.0 mi Calm Calm - N/A   Partly Cloudy
2:35 PM 64.4 °F 48.2 °F 56% 30.19 in 10.0 mi Calm Calm - N/A   Clear
2:55 PM 62.6 °F 48.2 °F 59% 30.18 in 10.0 mi Calm Calm - N/A   Clear
3:15 PM 64.4 °F 48.2 °F 56% 30.17 in 10.0 mi Calm Calm - N/A   Clear
3:35 PM 66.2 °F 48.2 °F 52% 30.16 in 10.0 mi Calm Calm - N/A   Clear
3:55 PM 66.2 °F 48.2 °F 52% 30.15 in 10.0 mi Calm Calm - N/A   Clear
4:15 PM 66.2 °F 48.2 °F 52% 30.15 in 10.0 mi Calm Calm - N/A   Clear
4:35 PM 66.2 °F 48.2 °F 52% 30.14 in 10.0 mi Calm Calm - N/A   Clear
4:55 PM 66.2 °F 48.2 °F 52% 30.14 in 10.0 mi Calm Calm - N/A   Clear
5:15 PM 66.2 °F 46.4 °F 49% 30.14 in 10.0 mi Calm Calm - N/A   Clear
5:35 PM 66.2 °F 48.2 °F 52% 30.14 in 10.0 mi Calm Calm - N/A   Clear
5:55 PM 66.2 °F 48.2 °F 52% 30.13 in 10.0 mi Calm Calm - N/A   Clear
6:15 PM 64.4 °F 48.2 °F 56% 30.13 in 10.0 mi Calm Calm - N/A   Clear
6:35 PM 62.6 °F 51.8 °F 68% 30.13 in 10.0 mi Calm Calm - N/A   Clear
6:55 PM 57.2 °F 51.8 °F 82% 30.14 in 10.0 mi Calm Calm - N/A   Clear
7:15 PM 55.4 °F 51.8 °F 88% 30.14 in 10.0 mi Calm Calm - N/A   Clear
7:35 PM 55.4 °F 51.8 °F 88% 30.14 in 10.0 mi Calm Calm - N/A   Clear
7:55 PM 53.6 °F 50.0 °F 88% 30.14 in 10.0 mi Calm Calm - N/A   Clear
8:15 PM 55.4 °F 48.2 °F 77% 30.15 in 10.0 mi Calm Calm - N/A   Clear
8:35 PM 57.2 °F 48.2 °F 72% 30.16 in 10.0 mi Calm Calm - N/A   Clear
8:55 PM 55.4 °F 48.2 °F 77% 30.16 in 10.0 mi Calm Calm - N/A   Clear
9:15 PM 55.4 °F 48.2 °F 77% 30.16 in 10.0 mi Calm Calm - N/A   Clear
9:35 PM 55.4 °F 48.2 °F 77% 30.16 in 10.0 mi Calm Calm - N/A   Clear
9:55 PM 55.4 °F 48.2 °F 77% 30.16 in 10.0 mi Calm Calm - N/A   Clear
10:15 PM 53.6 °F 48.2 °F 82% 30.16 in 10.0 mi Calm Calm - N/A   Clear
10:35 PM 53.6 °F 48.2 °F 82% 30.16 in 10.0 mi Calm Calm - N/A   Clear
10:55 PM 53.6 °F 48.2 °F 82% 30.15 in 10.0 mi Calm Calm - N/A   Clear
11:15 PM 53.6 °F 48.2 °F 82% 30.15 in 10.0 mi Calm Calm - N/A   Clear
11:35 PM 53.6 °F 48.2 °F 82% 30.14 in 10.0 mi Calm Calm - N/A   Clear
11:55 PM 53.6 °F 48.2 °F 82% 30.13 in 10.0 mi Calm Calm - N/A   Clear